Location: Memphis International Airport Police
(35.0443°N, 89.9815°W)
Time: 04:48:00
(UTC+00:00)

Daily predictions for brighter satellites

Satellite Brightness Start Highest point End
(mag) Time Altitude Azimuth Time Altitude Azimuth Time Altitude Azimuth
NOSS 2-3 (D) 3.6 00:12:35 10° S 00:16:07 40° ESE 00:19:42 10° NE
Meteor 1-11 Rocket 4.4 00:13:57 10° SSW 00:19:23 61° W 00:24:54 10° N
IGS 5A 4.4 00:18:05 10° SE 00:21:31 27° ENE 00:24:58 10° NNE
SKYMED 2 4.3 00:17:52 10° N 00:22:09 61° WNW 00:26:25 10° SSW
Cosmos 1844 4.0 00:18:34 10° N 00:24:09 47° ENE 00:29:40 10° SE
Cosmos 1975 3.5 00:21:07 10° SSE 00:24:33 31° E 00:28:00 10° NNE
Cosmos 1842 3.2 00:21:11 10° N 00:25:00 90° E 00:28:47 10° S
USA 215 3.7 00:20:07 10° ENE 00:26:14 41° SE 00:32:19 10° SSW
Cosmos 2360 Rocket 2.6 00:23:39 10° SSW 00:29:14 70° WNW 00:34:54 10° NNE
CZ-4 R/B 2.9 00:27:56 10° ESE 00:30:28 17° ENE 00:33:00 10° NNE
Cosmos 2333 4.1 00:25:05 10° SSW 00:30:39 77° ESE 00:36:17 10° NNE
Cosmos 1666 Rocket 3.9 00:27:01 10° SSW 00:31:26 74° W 00:35:55 10° N
Cosmos 2333 Rocket 2.2 00:26:42 10° SSW 00:32:20 89° WNW 00:38:01 10° NNE
Meteor 2-10 4.3 00:28:15 10° S 00:33:48 55° E 00:39:22 10° NNE
Cosmos 2322 4.1 00:31:40 10° S 00:36:57 40° ESE 00:42:15 10° NE
Cosmos 1933 Rocket 4.4 00:33:39 10° SSE 00:37:26 29° E 00:41:13 10° NNE
COSMOS 2428 3.4 00:32:42 10° SSE 00:37:34 30° ESE 00:42:26 10° NE
Cosmos 1626 3.0 00:34:14 10° NNW 00:37:36 49° W 00:40:57 10° S
Cosmos 2228 Rocket 4.0 00:40:05 10° NNW 00:44:27 53° W 00:48:51 10° S
IUS-9 SRM-1 4.1 00:42:41 10° SSW 00:44:43 15° SSE 00:46:24 12° SE
Okean 1-7 3.8 00:41:06 10° NNE 00:44:54 29° ENE 00:48:42 10° SE
Cosmos 1707 Rocket 3.8 00:40:52 10° N 00:45:18 74° W 00:49:44 10° S
Cosmos 1805 3.5 00:42:14 10° SSE 00:45:47 41° E 00:49:22 10° NNE
NOSS 2-3 (E) 3.4 00:43:20 10° SW 00:47:03 71° WNW 00:50:56 10° NNE
NOSS 2-2 (E) 2.8 00:44:49 10° SSW 00:48:23 66° ESE 00:51:34 10° NE
NOSS 3-1 (C) 3.3 00:50:00 10° S 00:54:21 37° ESE 00:59:12 10° NE
Landsat 4 4.3 00:56:02 23° ESE 00:57:24 32° ENE 01:00:39 10° N
Okean O Rocket 2.7 00:58:25 22° E 00:59:19 24° ENE 01:02:52 10° NNE
Cosmos 2366 rocket 3.9 00:54:10 10° N 01:00:18 68° E 01:06:23 10° SSE
SL-8 Rocket 3.9 00:54:29 10° N 01:00:46 81° E 01:07:04 10° S
YAOGAN 1 2.7 01:00:36 10° S 01:04:53 74° WSW 01:09:12 10° NNW
USA 81 4.0 01:00:03 10° S 01:05:18 86° E 01:10:35 10° N
Cosmos 2341 Rocket 4.1 00:59:49 10° N 01:06:07 81° W 01:12:27 10° S
Cosmos 1110 Rocket 3.9 01:01:54 10° NNW 01:07:07 77° ENE 01:12:19 10° SSE
NOSS 2-2 (D) 2.7 01:03:43 10° SSW 01:07:21 77° ESE 01:09:36 18° NE
Cosmos 1726 3.4 01:05:34 10° SSW 01:08:44 38° W 01:11:55 10° N
CZ-4B R/B 4.2 01:06:30 10° SSW 01:09:49 35° W 01:13:04 10° NNW
Gbstr 26 Del rocket 4.5 01:02:23 10° SSW 01:10:01 68° SE 01:17:59 10° NE
NOSS 2-2 (C) 2.7 01:06:25 10° SSW 01:10:03 81° ESE 01:12:10 20° NE
SL-14 R/B 3.5 01:06:56 10° N 01:10:42 44° E 01:11:45 35° ESE
PSLV R/B 3.9 01:10:23 31° SE 01:11:47 49° ENE 01:15:31 10° N
Cosmos 1733 4.2 01:08:59 10° SSW 01:12:31 46° W 01:16:05 10° N
Resurs 01 Rocket 3.7 01:14:35 13° NE 01:14:35 13° NE 01:15:33 10° NNE
PAYLOAD B 4.2 01:09:07 10° SSE 01:14:42 85° ENE 01:20:18 10° NNW
Cosmos 2084 4.0 01:13:00 10° NW 01:16:42 48° WSW 01:19:44 15° S
Cosmos 1869 Rocket 3.8 01:13:05 10° SSE 01:17:15 43° E 01:21:25 10° NNE
Cosmos 1844 Rocket 3.6 01:12:31 10° NNW 01:17:51 49° WSW 01:23:10 10° S
CZ-4C R/B 2.8 01:14:27 10° NNE 01:17:51 83° ESE 01:21:16 10° S
Cosmos 2219 Rocket 2.9 01:14:03 10° SW 01:19:30 55° WNW 01:25:00 10° NNE
Okean 3 3.6 01:20:04 10° NNW 01:24:10 69° W 01:28:15 10° S
Resurs 1-3 3.7 01:24:46 46° ESE 01:25:32 53° ENE 01:29:47 10° N
Cosmos 2218 Rocket 4.2 01:22:31 10° N 01:28:38 72° W 01:34:44 10° S
Okean 2 3.7 01:33:39 10° N 01:36:46 48° NNE 01:36:46 48° NNE
Cosmos 1302 Rocket 4.0 01:33:12 10° N 01:38:24 60° ENE 01:39:05 55° ESE
CZ-4B R/B 3.1 01:34:38 16° S 01:38:56 82° WSW 01:44:15 10° NNW
SJ-6B 2.8 01:39:14 53° S 01:40:07 80° WSW 01:44:09 10° NNW
Cosmos 1340 Rocket 3.6 01:36:34 10° NNW 01:40:31 52° W 01:43:01 21° SSW
ATLAS 3B R/B 2.7 01:35:48 10° SSW 01:42:32 83° WNW 01:49:49 10° NNE
Landsat 7 4.1 01:39:44 18° S 01:43:08 67° WSW 01:47:49 10° NNW
CSL-04 Rocket 3.6 01:46:33 58° ENE 01:46:36 58° ENE 01:51:47 10° N
COSMOS 2455 3.6 01:44:12 10° N 01:49:11 34° NE 01:49:11 34° NE
SL-08 R/B 4.3 01:48:40 10° N 01:54:48 77° E 01:56:22 52° SSE
Cosmos 2278 Rocket 3.5 01:51:40 10° N 01:55:05 27° NNE 01:55:05 27° NNE
Cosmos 1241 Rocket 4.3 01:52:42 10° NNW 01:58:56 69° ENE 01:59:20 67° E
NOSS 0 Rocket 3.8 01:56:01 10° SSW 02:02:11 88° WNW 02:08:26 10° NNE
SPOT 1/Viking Rocket 3.5 02:03:14 75° NNE 02:03:14 75° NNE 02:07:59 10° N
CZ-4 R/B 3.2 02:03:19 20° SW 02:05:00 27° W 02:08:20 10° NW
Milstar 3 Cent rocket 3.1 01:55:36 10° W 02:07:08 55° S 02:08:15 50° SSE
Cosmos 614 Rocket 4.3 02:02:42 10° SSW 02:07:41 60° WNW 02:12:41 10° N
USA 215 4.0 02:02:59 10° NNE 02:09:13 49° NW 02:15:27 10° WSW
ADEOS Rocket 3.4 02:15:33 63° SE 02:16:56 78° ENE 02:24:33 10° N
COSMOS 2428 4.3 02:16:39 10° SW 02:21:40 32° WNW 02:26:43 10° N
Cosmos 1934 Rocket 4.4 02:21:00 10° N 02:25:45 53° N 02:25:45 53° N
Okean O Rocket 3.6 02:35:49 25° W 02:35:49 25° W 02:39:09 10° NW
USA 267 4.1 02:41:19 37° NNE 02:41:19 37° NNE 02:46:13 10° NNW
Resurs 01 Rocket 4.2 02:52:06 17° NW 02:52:06 17° NW 02:53:12 10° NNW
Cosmos 1943 Rocket 4.5 03:07:51 10° NNW 03:09:05 17° N 03:09:05 17° N
SL-16 R/B 4.2 08:28:25 10° N 08:32:59 24° ENE 08:37:30 10° ESE
ATLAS 2AS CENTAUR R/B 3.1 08:55:38 64° NNE 08:55:38 64° NNE 09:01:45 10° NNE
USA 215 4.1 08:48:54 10° ESE 08:55:04 46° NE 08:57:55 30° NNW
Cosmos 2322 Rocket 4.2 08:52:23 10° N 08:56:59 25° ENE 09:01:33 10° ESE
ATLAS CENTAUR R/B 3.9 09:00:09 45° N 09:00:09 45° N 09:08:01 10° NE
Cosmos 2266 Rocket 4.0 09:21:30 78° SE 09:21:45 80° E 09:28:07 10° N
Cosmos 2360 Rocket 3.9 09:21:07 10° N 09:26:07 31° ENE 09:31:04 10° ESE
Cosmos 2333 Rocket 4.3 09:25:38 10° N 09:30:23 26° ENE 09:35:06 10° ESE
Intelsat 5-1 Rocket 4.1 09:31:19 26° SSE 09:31:19 26° SSE 09:37:47 10° ESE
CZ-2C R/B 3.0 09:29:22 10° NNE 09:32:45 46° NNE 09:32:45 46° NNE
PAYLOAD A 4.0 09:36:03 10° NNE 09:40:18 69° N 09:40:18 69° N
Meteor 2-12 Rocket 4.3 09:42:51 42° S 09:45:06 90° NNE 09:51:18 10° N
Cosmos 1655 Rocket 3.9 09:45:06 41° SSW 09:47:31 83° W 09:53:57 10° N
Hubble Space Telescope 2.7 09:51:51 20° SSE 09:51:51 20° SSE 09:53:33 10° SE
Meteor 1-5 Rocket 4.2 09:45:10 10° N 09:50:48 77° E 09:56:14 10° SSE
Cosmos 1833 4.1 09:56:02 57° SW 09:57:08 74° WNW 10:02:47 10° NNE
OAO 2 Rocket 3.1 09:59:04 72° WSW 09:59:34 84° S 10:04:29 10° E
OAO 3 Copernicus 4.1 10:00:36 66° SW 10:01:15 79° S 10:06:17 10° E
USA 276 4.1 10:04:39 23° ENE 10:04:39 23° ENE 10:06:11 10° E
IRS-1D 4.4 10:01:47 10° N 10:05:45 33° NW 10:05:45 33° NW
BREEZE-M DEB (TANK) 3.6 10:06:53 45° SW 10:08:24 88° SE 10:21:53 10° NE
CZ-2C R/B 4.4 10:03:40 10° NNW 10:07:28 26° NW 10:07:28 26° NW
SEDSat Delta rocket 4.4 10:07:38 38° SW 10:08:58 42° SSW 10:14:48 10° SE
H-2A R/B 4.1 10:06:01 10° NNE 10:09:14 35° E 10:12:27 10° SSE
DELTA 2 R/B (1) 3.8 10:07:16 36° WNW 10:09:30 67° NNE 10:15:03 10° E
NOSS 2-2 (E) 4.4 10:04:12 10° NNW 10:09:35 88° WSW 10:17:17 10° SSE
Cosmos 1378 3.7 10:09:36 16° SSE 10:12:09 51° E 10:15:35 10° NNE
SL-4 R/B 3.7 10:12:26 14° NNW 10:14:29 23° NNE 10:17:13 10° E
Cosmos 1743 4.4 10:11:59 10° NNE 10:15:26 34° E 10:18:50 10° SSE
Cosmos 2219 Rocket 3.7 10:10:54 10° N 10:16:08 38° ENE 10:21:22 10° SE
CZ-2C R/B 0.6 10:16:28 75° E 10:16:28 75° E 10:19:20 10° E
SL-16 R/B 2.5 10:11:53 10° NW 10:17:11 41° WSW 10:22:27 10° S
Okean 3 Rocket 3.6 10:20:28 10° NNW 10:24:49 53° W 10:29:06 10° S
NOSS 2-2 (D) 4.4 10:23:18 10° NNW 10:28:37 82° WSW 10:36:14 10° SSE
Cosmos 494 Rocket 4.1 10:24:32 10° NNW 10:29:41 77° ENE 10:34:47 10° SSE
Lacrosse 5 rocket 1.3 10:29:43 37° WSW 10:31:09 63° NW 10:35:06 10° NNE
NOSS 2-2 (C) 4.4 10:26:06 10° NW 10:31:24 80° WSW 10:39:01 10° SSE
Cosmos 1484 Rocket 2.7 10:28:23 10° N 10:31:54 51° WNW 10:33:15 32° SW
Cosmos 1842 Rocket 4.3 10:33:00 31° W 10:33:41 33° WNW 10:37:44 10° NNW
Cosmos 2084 Rocket 4.3 10:35:51 27° WNW 10:36:34 29° NW 10:40:07 10° N
GP-B 3.0 10:32:51 10° S 10:37:12 63° W 10:41:36 10° N
Cosmos 1125 Rocket 3.4 10:32:22 10° SSW 10:37:36 77° WNW 10:42:49 10° NNE
USA 215 3.5 10:31:49 10° SSE 10:38:01 45° SW 10:44:15 10° NW
Helios 1A 3.0 10:34:27 10° SSE 10:38:33 81° ENE 10:42:40 10° N
Envisat 4.0 10:34:45 10° NNW 10:38:53 26° WNW 10:40:01 23° W
Cosmos 2322 Rocket 2.6 10:35:51 10° NW 10:41:05 40° WSW 10:46:19 10° S
Cosmos 1048 Rocket 4.0 10:37:39 10° NNW 10:42:57 85° ENE 10:48:07 10° SSE
ATLAS 2AS CENTAUR R/B 4.3 10:43:05 15° WNW 10:46:16 19° NW 10:51:15 10° N
Delta 2 Rocket 3.8 10:43:36 23° W 10:46:55 90° N 10:52:12 10° E
Cosmos 1244 Rocket 4.4 10:41:02 10° SSW 10:47:10 65° W 10:53:23 10° N
Meteor 1-27 Rocket 4.1 10:43:15 10° S 10:48:41 66° E 10:54:15 10° NNE
Cosmos 2315 Rocket 4.5 10:43:45 10° NNW 10:49:32 38° W 10:55:19 10° SSW
ERS-2 1.6 10:47:15 10° NNE 10:50:25 85° WNW 10:53:34 10° SSW
Cosmos 2298 Rocket 4.0 10:45:39 10° SSW 10:50:56 86° WNW 10:56:16 10° NNE
IRS-1C 4.2 10:50:44 10° N 10:55:59 60° WNW 11:01:12 10° SSW
Cosmos 1271 Rocket 2.5 10:56:13 10° N 10:59:58 80° W 11:03:38 10° S
Cosmos 1151 Rocket 3.0 10:57:41 10° S 11:02:01 88° W 11:06:24 10° N
Cosmos 1743 Rocket 3.4 10:58:23 10° NNW 11:02:42 71° W 11:07:00 10° S
Cosmos 2297 Rocket 3.5 10:57:45 10° S 11:03:04 44° ESE 11:08:23 10° NE
Meteor 1-11 Rocket 3.9 10:59:10 10° N 11:05:02 85° E 11:11:00 10° S
SJ-12 4.5 11:01:25 10° NNE 11:05:26 62° E 11:09:23 10° S
Cosmos 1805 Rocket 3.4 11:02:17 10° NNW 11:06:35 69° W 11:10:53 10° S
Cosmos 2150 Rocket 4.1 11:01:31 10° SSW 11:06:51 62° WNW 11:12:08 10° N
SL-27 R/B 4.0 11:08:59 13° W 11:09:39 14° WNW 11:11:21 10° NNW
ATLAS 3B R/B 3.0 11:01:56 10° NW 11:09:41 70° WSW 11:17:17 10° SSE
Cosmos 2360 Rocket 2.9 11:05:03 10° NW 11:10:00 31° WSW 11:14:55 10° SSW
Cosmos 2333 4.5 11:07:07 10° NNW 11:12:38 48° WSW 11:18:07 10° S
SKYMED 2 4.0 11:09:11 10° SSE 11:13:28 68° ENE 11:17:47 10° N
ARIANE 5 R/B 2.9 11:09:18 10° N 11:14:02 42° WNW 11:18:42 10° SW
Cosmos 2333 Rocket 2.7 11:09:26 10° NW 11:14:42 39° WSW 11:19:59 10° S
Cosmos 1939 Rocket 2.9 11:11:13 10° N 11:14:58 54° WNW 11:18:44 10° SSW
Cosmos 2322 3.8 11:13:11 10° NNW 11:18:54 89° ENE 11:24:33 10° SSE
COSMOS 2428 3.1 11:14:07 10° NNW 11:19:48 70° ENE 11:25:28 10° SSE
H-2A R/B 2.2 11:15:46 10° N 11:21:09 62° WNW 11:26:28 10° SSW
NOSS 3-1 (A) 4.3 11:22:07 10° NNW 11:30:04 86° WSW 11:39:18 10° SSE
Spot 4 Rocket 4.0 11:26:14 10° N 11:31:21 75° WNW 11:36:27 10° SSW
